Waukesha, WI

4:14 AM CDT on September 16, 2019 (GMT -0500)
Waukesha County

Weather History for KUES - August, 2019

Change the Weather History Date:

Wednesday, August 21, 2019

  Actual Average Record
Temperature  
Mean Temperature 70 °F -  
Max Temperature 78 °F 80 °F 100 °F (1955)
Min Temperature 62 °F 59 °F 42 °F (1950)
Cooling Degree Days 5    
Growing Degree Days 20 (Base 50)    
Moisture  
Dew Point 61 °F    
Average Humidity 80    
Maximum Humidity 100    
Minimum Humidity 57    
Precipitation  
Precipitation 0.00 in - - ()
Sea Level Pressure  
Sea Level Pressure 29.98 in    
Wind  
Wind Speed 4 mph (WNW)    
Max Wind Speed 18 mph    
Max Gust Speed 22 mph    
Visibility 10 miles    
Events      
Averages and records for this station are not official NWS values.
T = Trace of Precipitation, MM = Missing Value Source: NWS Daily Summary

Daily Weather History Graph

Daily Weather History Graph

Search for Another Location

Airport or City:

Astronomy

Aug. 21, 2019 Rise Set
Actual Time 6:05 AM CDT 7:46 PM CDT
Civil Twilight 5:34 AM CDT 8:16 PM CDT
Nautical Twilight 4:58 AM CDT 8:52 PM CDT
Astronomical Twilight 4:18 AM CDT 9:31 PM CDT
Moon 10:54 PM CDT (8/21) 11:49 AM CDT (8/21)
Length of Visible Light 14h 41m
Length of Day
13h 41m
Waning Gibbous, 69% of the Moon is Illuminated
Aug 21
Waning Gibbous
Aug 23
Last Quarter
Aug 30
New
Sep 5
First Quarter
Sep 13
Full

Hourly Weather History & Observations

Time (CDT) Temp. Dew Point Humidity Pressure Visibility Wind Dir Wind Speed Gust Speed Precip Events Conditions
12:15 AM 64.4 °F 62.6 °F 94% 29.98 in 10.0 mi WSW 4.6 mph - N/A   Clear
12:35 AM 64.4 °F 62.6 °F 94% 29.98 in 10.0 mi SW 3.5 mph - N/A   Clear
1:35 AM 64.4 °F 62.6 °F 94% 29.97 in 10.0 mi South 3.5 mph - N/A   Clear
1:55 AM 64.4 °F 62.6 °F 94% 29.97 in 10.0 mi Calm Calm - N/A   Clear
2:35 AM 62.6 °F 62.6 °F 100% 29.97 in 10.0 mi Calm Calm - N/A   Clear
2:55 AM 62.6 °F 62.6 °F 100% 29.97 in 10.0 mi SSW 3.5 mph - N/A   Clear
3:15 AM 62.6 °F 62.6 °F 100% 29.96 in 10.0 mi Calm Calm - N/A   Clear
3:35 AM 62.6 °F 62.6 °F 100% 29.96 in 7.0 mi Calm Calm - N/A   Scattered Clouds
3:55 AM 62.6 °F 62.6 °F 100% 29.96 in 10.0 mi Calm Calm - N/A   Mostly Cloudy
4:15 AM 62.6 °F 62.6 °F 100% 29.96 in 10.0 mi WSW 4.6 mph - N/A   Mostly Cloudy
4:55 AM 64.4 °F 64.4 °F 100% 29.94 in 10.0 mi WSW 3.5 mph - N/A   Mostly Cloudy
5:15 AM 64.4 °F 64.4 °F 100% 29.93 in 10.0 mi Calm Calm - N/A   Overcast
5:35 AM 64.4 °F 64.4 °F 100% 29.93 in 10.0 mi Calm Calm - N/A   Mostly Cloudy
5:45 AM 64.4 °F 64.4 °F 100% 29.93 in 10.0 mi Calm Calm - N/A   Overcast
6:45 AM 66.2 °F 64.4 °F 94% 29.97 in 10.0 mi West 4.6 mph - N/A   Overcast
7:45 AM 69.8 °F 66.2 °F 88% 29.98 in 10.0 mi West 4.6 mph - N/A   Mostly Cloudy
8:45 AM 69.8 °F 66.2 °F 88% 29.97 in 10.0 mi West 4.6 mph - N/A   Mostly Cloudy
9:45 AM 73.4 °F 68.0 °F 83% 29.97 in 10.0 mi West 5.8 mph - N/A   Mostly Cloudy
10:45 AM 78.8 °F 66.2 °F 65% 29.97 in 10.0 mi WNW 8.1 mph - N/A   Mostly Cloudy
11:45 AM 77.0 °F 66.2 °F 69% 29.98 in 10.0 mi West 12.7 mph 17.3 mph N/A   Overcast
12:45 PM 78.8 °F 66.2 °F 65% 29.98 in 10.0 mi WNW 18.4 mph 21.9 mph N/A   Mostly Cloudy
1:45 PM 77.0 °F 64.4 °F 65% 29.97 in 10.0 mi NW 11.5 mph - N/A   Scattered Clouds
2:45 PM 75.2 °F 62.6 °F 65% 29.99 in 10.0 mi WNW 10.4 mph - N/A   Scattered Clouds
3:45 PM 73.4 °F 62.6 °F 69% 29.98 in 10.0 mi NW 15.0 mph 21.9 mph N/A   Clear
4:45 PM 73.4 °F 60.8 °F 65% 29.97 in 10.0 mi NW 10.4 mph 16.1 mph N/A   Clear
5:45 PM 73.4 °F 60.8 °F 65% 29.97 in 10.0 mi WNW 11.5 mph - N/A   Clear
6:45 PM 71.6 °F 55.4 °F 57% 29.95 in 10.0 mi NW 8.1 mph - N/A   Clear
7:45 PM 69.8 °F 55.4 °F 60% 29.96 in 10.0 mi NW 8.1 mph - N/A   Clear
8:45 PM 66.2 °F 55.4 °F 68% 29.98 in 10.0 mi NW 4.6 mph - N/A   Clear
9:15 PM 66.2 °F 55.4 °F 68% 30.00 in 10.0 mi NW 4.6 mph - N/A   Clear
9:35 PM 64.4 °F 55.4 °F 73% 30.00 in 10.0 mi NW 4.6 mph - N/A   Clear
9:55 PM 66.2 °F 53.6 °F 64% 30.00 in 10.0 mi NW 6.9 mph - N/A   Clear
10:15 PM 64.4 °F 53.6 °F 68% 30.00 in 10.0 mi NW 6.9 mph - N/A   Clear
10:35 PM 64.4 °F 53.6 °F 68% 30.01 in 10.0 mi NW 4.6 mph - N/A   Clear
10:55 PM 64.4 °F 51.8 °F 64% 30.01 in 10.0 mi NNW 3.5 mph - N/A   Clear
11:15 PM 64.4 °F 51.8 °F 64% 30.02 in 10.0 mi NW 4.6 mph - N/A   Clear
11:35 PM 62.6 °F 51.8 °F 68% 30.02 in 10.0 mi NW 3.5 mph - N/A   Clear
11:55 PM 62.6 °F 51.8 °F 68% 30.03 in 10.0 mi NW 3.5 mph - N/A   Clear